CW7992 Weather Reports


time (UTC)temp
C
wind
direction
speed
KPH
gust
KPH
rain 1hr
cm
rain 24hr
cm
rain mn
cm
humidity
%
barometer
mb
20260506111111 15 51 1.6 20.9 0.00 0.00 0.00 60 10.6
20260506110111 15 58 8.0 17.7 0.00 0.00 0.00 56 10.7
20260506105111 15 30 11.3 19.3 0.00 0.00 0.00 58 10.6
20260506104111 15 69 8.0 17.7 0.00 0.00 0.00 63 10.7
20260506103111 15 29 12.9 17.7 0.00 0.00 0.00 60 10.8
20260506102111 15 53 8.0 19.3 0.00 0.00 0.00 62 10.9
20260506101111 15 304 9.7 17.7 0.00 0.00 0.00 58 10.9
20260506100111 14 56 11.3 20.9 0.00 0.00 0.00 59 10.9
20260506095111 14 36 6.4 12.9 0.00 0.00 0.00 62 11.0
20260506094111 13 355 8.0 12.9 0.00 0.00 0.00 59 11.0
20260506093111 14 61 6.4 11.3 0.00 0.00 0.00 57 11.0
20260506091111 15 295 6.4 20.9 0.00 0.00 0.00 61 11.0
20260506090111 15 38 14.5 20.9 0.00 0.00 0.00 60 11.1
20260506085111 14 27 6.4 19.3 0.00 0.00 0.00 58 11.0
20260506084111 14 71 8.0 20.9 0.00 0.00 0.00 61 11.0
20260506083111 14 62 11.3 19.3 0.00 0.00 0.00 59 10.9
20260506082111 13 51 8.0 22.5 0.00 0.00 0.00 62 11.0
20260506081111 13 61 12.9 17.7 0.00 0.00 0.00 62 11.0
20260506080111 13 53 8.0 22.5 0.00 0.00 0.00 64 11.0
20260506073111 12 59 4.8 11.3 0.00 0.00 0.00 70 10.9
20260506072111 11 61 8.0 12.9 0.00 0.00 0.00 76 10.9
20260506070111 10 59 6.4 17.7 0.00 0.00 0.00 81 10.8
20260506062111 8 19 6.4 9.7 0.00 0.00 0.00 84 11.0
20260506060111 7 26 9.7 12.9 0.00 0.00 0.00 84 11.0
20260506051111 5 40 6.4 11.3 0.00 0.00 0.00 85 11.1
20260506050111 5 55 8.0 9.7 0.00 0.00 0.00 85 11.1
20260506045111 5 32 6.4 16.1 0.00 0.00 0.00 85 11.1
20260506044111 4 36 8.0 16.1 0.00 0.00 0.00 85 11.1
20260506043111 4 38 6.4 12.9 0.00 0.00 0.00 86 11.1
20260506042111 4 36 6.4 11.3 0.00 0.00 0.00 86 11.2
20260506040110 4 5 8.0 11.3 0.00 0.00 0.00 86 11.2
20260506035111 4 30 3.2 12.9 0.00 0.00 0.00 86 11.3
20260506034111 4 19 6.4 11.3 0.00 0.00 0.00 86 11.2
20260506033111 4 19 8.0 11.3 0.00 0.00 0.00 85 11.2
20260506031110 4 34 8.0 11.3 0.00 0.00 0.00 86 11.3
20260506030111 4 42 6.4 11.3 0.00 0.00 0.00 86 11.3
20260506025111 4 48 4.8 12.9 0.00 0.00 0.00 86 11.3
20260506024110 4 23 8.0 11.3 0.00 0.00 0.00 86 11.4
20260506023110 4 39 6.4 9.7 0.00 0.00 0.00 86 11.4
20260506022111 4 44 6.4 11.3 0.00 0.00 0.00 86 11.5
20260506021110 4 5 4.8 12.9 0.00 0.00 0.00 86 11.5
20260506020110 4 35 4.8 9.7 0.00 0.00 0.00 85 11.5
20260506014110 5 16 8.0 11.3 0.00 0.00 0.00 84 11.5
20260506012110 5 34 4.8 11.3 0.00 0.00 0.00 84 11.4
20260506011111 5 25 6.4 9.7 0.00 0.00 0.00 83 11.4
20260506010111 5 32 4.8 11.3 0.00 0.00 0.00 83 11.4
20260506004111 6 24 3.2 3.2 0.00 0.00 0.00 83 11.4
20260506003111 6 13 0.0 1.6 0.00 0.00 0.00 83 11.3
20260506002111 6 16 0.0 0.0 0.00 0.00 0.00 82 11.2
20260506001111 6 16 0.0 0.0 0.00 0.00 0.00 82 11.2
20260506000110 6 16 0.0 0.0 0.00 0.00 0.00 81 11.3
20260505232110 6 19 0.0 8.0 0.00 0.00 0.00 79 11.3
20260505231111 7 20 1.6 6.4 0.00 0.00 0.00 79 11.3
20260505230110 7 338 3.2 8.0 0.00 0.00 0.00 78 11.3
20260505224110 8 5 3.2 9.7 0.00 0.00 0.00 77 11.5
20260505223110 8 9 4.8 11.3 0.00 0.00 0.00 76 11.4
20260505222110 8 360 1.6 8.0 0.00 0.00 0.00 75 11.4
20260505221110 8 28 8.0 12.9 0.00 0.00 0.00 75 11.5
20260505220111 8 15 1.6 6.4 0.00 0.00 0.00 76 11.5
20260505215110 8 20 3.2 9.7 0.00 0.00 0.00 76 11.5
20260505214111 8 17 3.2 6.4 0.00 0.00 0.00 78 11.6
20260505213111 8 16 0.0 1.6 0.00 0.00 0.00 79 11.7
20260505212110 8 16 1.6 3.2 0.00 0.00 0.00 78 11.6
20260505210110 9 18 0.0 8.0 0.00 0.00 0.00 76 11.7
20260505205110 9 302 1.6 8.0 0.00 0.00 0.00 76 11.7
20260505204111 10 309 1.6 8.0 0.00 0.00 0.00 75 11.7
20260505203110 10 335 1.6 3.2 0.00 0.00 0.00 74 11.7
20260505202111 10 304 3.2 12.9 0.00 0.00 0.00 74 11.5
20260505200111 10 302 6.4 9.7 0.00 0.00 0.00 71 11.5
20260505195110 11 309 3.2 8.0 0.00 0.00 0.00 69 11.5
20260505194111 11 337 4.8 9.7 0.00 0.00 0.00 68 11.3
20260505193111 11 22 8.0 9.7 0.00 0.00 0.00 68 11.3
20260505192110 12 306 3.2 6.4 0.00 0.00 0.00 70 11.3
20260505191111 12 19 1.6 3.2 0.00 0.00 0.00 70 11.1
20260505190110 12 19 0.0 0.0 0.00 0.00 0.00 71 11.0
20260505185110 12 5 0.0 1.6 0.00 0.00 0.00 71 10.8
20260505184111 12 5 1.6 1.6 0.00 0.00 0.00 71 10.9
20260505183110 12 32 0.0 1.6 0.00 0.00 0.00 68 10.8
20260505182111 12 19 1.6 3.2 0.00 0.00 0.00 71 10.8
20260505181110 12 305 0.0 3.2 0.00 0.00 0.00 70 10.9
20260505180110 12 305 6.4 8.0 0.00 0.00 0.00 70 10.9
20260505174110 12 317 4.8 12.9 0.00 0.00 0.00 68 10.9
20260505173111 13 345 1.6 11.3 0.00 0.00 0.00 64 10.9
20260505172110 12 360 6.4 9.7 0.00 0.00 0.00 71 11.0
20260505170110 13 308 4.8 11.3 0.00 0.00 0.00 67 11.1
20260505165110 13 323 4.8 11.3 0.00 0.00 0.00 67 11.0
20260505164110 13 317 9.7 16.1 0.00 0.00 0.00 67 11.1
20260505163110 13 313 8.0 16.1 0.00 0.00 0.00 68 11.1
20260505162110 13 323 9.7 17.7 0.00 0.00 0.00 67 11.1
20260505161110 13 311 6.4 19.3 0.00 0.00 0.00 67 11.0
20260505160110 13 318 9.7 19.3 0.00 0.00 0.00 67 11.1
20260505152110 14 287 6.4 20.9 0.00 0.00 0.00 65 11.1
20260505140110 16 309 9.7 17.7 0.00 0.00 0.00 61 11.2
20260505130110 15 37 1.6 3.2 0.00 0.00 0.00 61 11.6
20260505124110 15 286 9.7 16.1 0.00 0.00 0.00 57 11.7
20260505122110 14 34 0.0 8.0 0.00 0.00 0.00 63 11.8
20260505121110 13 314 3.2 9.7 0.00 0.00 0.00 63 12.0
20260505115110 13 13 0.0 16.1 0.00 0.00 0.00 64 12.0
20260505113110 15 75 6.4 11.3 0.00 0.00 0.00 60 12.0